Location: Wiesbaden
(50.0830°N, 8.2500°E)
Time: 08:35:40
(UTC+01:00)

ISS - Pass Details

Date: 08 December 2018
Orbit: 401 x 408 km, 51.6° (Epoch: 12 December)

Event Time Altitude Azimuth Distance (km) Brightness Sun altitude
Rises 17:34:59 0° 284° (WNW) 2,321 1.0 -10.6°
Reaches altitude 10° 17:37:04 10° 285° (WNW) 1,459 -0.2 -10.9°
Maximum altitude 17:40:20 82° 12° (NNE) 412 -3.9 -11.4°
Enters shadow 17:42:53 16° 101° (E) 1,164 -2.0 -11.8°
